Year,Month,Day,Hour,Minute,Value (Times are PST for temperature in C)
2015,04,29,00,00,10.20
2015,04,29,00,01,10.20
2015,04,29,00,02,10.20
2015,04,29,00,03,10.20
2015,04,29,00,04,10.10
2015,04,29,00,05,10.10
2015,04,29,00,06,10.10
2015,04,29,00,07,10.10
2015,04,29,00,08,10.10
2015,04,29,00,09,10.10
2015,04,29,00,10,10.10
2015,04,29,00,11,10.10
2015,04,29,00,12,10.00
2015,04,29,00,13,10.00
2015,04,29,00,14,10.00
2015,04,29,00,15,10.00
2015,04,29,00,16,10.00
2015,04,29,00,17,10.00
2015,04,29,00,18,10.00
2015,04,29,00,19,9.90
2015,04,29,00,20,9.90
2015,04,29,00,21,9.90
2015,04,29,00,22,9.90
2015,04,29,00,23,9.90
2015,04,29,00,24,9.90
2015,04,29,00,25,9.90
2015,04,29,00,26,9.90
2015,04,29,00,27,9.80
2015,04,29,00,28,9.80
2015,04,29,00,29,9.80
2015,04,29,00,30,9.80
2015,04,29,00,31,9.80
2015,04,29,00,32,9.80
2015,04,29,00,33,9.80
2015,04,29,00,34,9.80
2015,04,29,00,35,9.70
2015,04,29,00,36,9.70
2015,04,29,00,37,9.70
2015,04,29,00,38,9.70
2015,04,29,00,39,9.70
2015,04,29,00,40,9.70
2015,04,29,00,41,9.70
2015,04,29,00,42,9.70
2015,04,29,00,43,9.70
2015,04,29,00,44,9.60
2015,04,29,00,45,9.60
2015,04,29,00,46,9.60
2015,04,29,00,47,9.60
2015,04,29,00,48,9.60
2015,04,29,00,49,9.60
2015,04,29,00,50,9.60
2015,04,29,00,51,9.60
2015,04,29,00,52,9.60
2015,04,29,00,53,9.50
2015,04,29,00,54,9.50
2015,04,29,00,55,9.50
2015,04,29,00,56,9.50
2015,04,29,00,57,9.50
2015,04,29,00,58,9.40
2015,04,29,00,59,9.40
2015,04,29,01,00,9.40
2015,04,29,01,01,9.40
2015,04,29,01,02,9.40
2015,04,29,01,03,9.40
2015,04,29,01,04,9.40
2015,04,29,01,05,9.40
2015,04,29,01,06,9.40
2015,04,29,01,07,9.40
2015,04,29,01,08,9.40
2015,04,29,01,09,9.40
2015,04,29,01,10,9.40
2015,04,29,01,11,9.40
2015,04,29,01,12,9.40
2015,04,29,01,13,9.40
2015,04,29,01,14,9.40
2015,04,29,01,15,9.40
2015,04,29,01,16,9.40
2015,04,29,01,17,9.40
2015,04,29,01,18,9.30
2015,04,29,01,19,9.30
2015,04,29,01,20,9.30
2015,04,29,01,21,9.30
2015,04,29,01,22,9.30
2015,04,29,01,23,9.30
2015,04,29,01,24,9.30
2015,04,29,01,25,9.30
2015,04,29,01,26,9.30
2015,04,29,01,27,9.30
2015,04,29,01,28,9.30
2015,04,29,01,29,9.20
2015,04,29,01,30,9.20
2015,04,29,01,31,9.20
2015,04,29,01,32,9.20
2015,04,29,01,33,9.20
2015,04,29,01,34,9.20
2015,04,29,01,35,9.20
2015,04,29,01,36,9.20
2015,04,29,01,37,9.20
2015,04,29,01,38,9.20
2015,04,29,01,39,9.10
2015,04,29,01,40,9.10
2015,04,29,01,41,9.10
2015,04,29,01,42,9.10
2015,04,29,01,43,9.10
2015,04,29,01,44,9.10
2015,04,29,01,45,9.10
2015,04,29,01,46,9.10
2015,04,29,01,47,9.10
2015,04,29,01,48,9.10
2015,04,29,01,49,9.00
2015,04,29,01,50,9.00
2015,04,29,01,51,9.00
2015,04,29,01,52,9.00
2015,04,29,01,53,9.00
2015,04,29,01,54,9.00
2015,04,29,01,55,8.90
2015,04,29,01,56,8.90
2015,04,29,01,57,8.90
2015,04,29,01,58,8.90
2015,04,29,01,59,8.90
2015,04,29,02,00,8.90
2015,04,29,02,01,8.90
2015,04,29,02,02,8.90
2015,04,29,02,03,8.90
2015,04,29,02,04,8.90
2015,04,29,02,05,8.90
2015,04,29,02,06,8.80
2015,04,29,02,07,8.80
2015,04,29,02,08,8.80
2015,04,29,02,09,8.80
2015,04,29,02,10,8.80
2015,04,29,02,11,8.80
2015,04,29,02,12,8.80
2015,04,29,02,13,8.70
2015,04,29,02,14,8.70
2015,04,29,02,15,8.70
2015,04,29,02,16,8.70
2015,04,29,02,17,8.70
2015,04,29,02,18,8.70
2015,04,29,02,19,8.70
2015,04,29,02,20,8.60
2015,04,29,02,21,8.60
2015,04,29,02,22,8.60
2015,04,29,02,23,8.60
2015,04,29,02,24,8.60
2015,04,29,02,25,8.60
2015,04,29,02,26,8.50
2015,04,29,02,27,8.50
2015,04,29,02,28,8.50
2015,04,29,02,29,8.50
2015,04,29,02,30,8.50
2015,04,29,02,31,8.50
2015,04,29,02,32,8.50
2015,04,29,02,33,8.40
2015,04,29,02,34,8.40
2015,04,29,02,35,8.40
2015,04,29,02,36,8.40
2015,04,29,02,37,8.40
2015,04,29,02,38,8.40
2015,04,29,02,39,8.40
2015,04,29,02,40,8.40
2015,04,29,02,41,8.40
2015,04,29,02,42,8.40
2015,04,29,02,43,8.40
2015,04,29,02,44,8.40
2015,04,29,02,45,8.40
2015,04,29,02,46,8.40
2015,04,29,02,47,8.40
2015,04,29,02,48,8.40
2015,04,29,02,49,8.40
2015,04,29,02,50,8.40
2015,04,29,02,51,8.40
2015,04,29,02,52,8.40
2015,04,29,02,53,8.40
2015,04,29,02,54,8.40
2015,04,29,02,55,8.40
2015,04,29,02,56,8.40
2015,04,29,02,57,8.40
2015,04,29,02,58,8.40
2015,04,29,02,59,8.40
2015,04,29,03,00,8.40
2015,04,29,03,01,8.40
2015,04,29,03,02,8.30
2015,04,29,03,03,8.30
2015,04,29,03,04,8.30
2015,04,29,03,05,8.30
2015,04,29,03,06,8.30
2015,04,29,03,07,8.30
2015,04,29,03,08,8.30
2015,04,29,03,09,8.30
2015,04,29,03,10,8.30
2015,04,29,03,11,8.30
2015,04,29,03,12,8.30
2015,04,29,03,13,8.30
2015,04,29,03,14,8.30
2015,04,29,03,15,8.30
2015,04,29,03,16,8.20
2015,04,29,03,17,8.20
2015,04,29,03,18,8.20
2015,04,29,03,19,8.20
2015,04,29,03,20,8.20
2015,04,29,03,21,8.20
2015,04,29,03,22,8.20
2015,04,29,03,23,8.10
2015,04,29,03,24,8.10
2015,04,29,03,25,8.10
2015,04,29,03,26,8.10
2015,04,29,03,27,8.10
2015,04,29,03,28,8.10
2015,04,29,03,29,8.10
2015,04,29,03,30,8.00
2015,04,29,03,31,8.00
2015,04,29,03,32,8.00
2015,04,29,03,33,8.00
2015,04,29,03,34,8.00
2015,04,29,03,35,7.90
2015,04,29,03,36,7.90
2015,04,29,03,37,7.90
2015,04,29,03,38,7.90
2015,04,29,03,39,7.80
2015,04,29,03,40,7.80
2015,04,29,03,41,7.80
2015,04,29,03,42,7.80
2015,04,29,03,43,7.80
2015,04,29,03,44,7.70
2015,04,29,03,45,7.70
2015,04,29,03,46,7.70
2015,04,29,03,47,7.70
2015,04,29,03,48,7.70
2015,04,29,03,49,7.70
2015,04,29,03,50,7.60
2015,04,29,03,51,7.60
2015,04,29,03,52,7.60
2015,04,29,03,53,7.60
2015,04,29,03,54,7.60
2015,04,29,03,55,7.60
2015,04,29,03,56,7.60
2015,04,29,03,57,7.50
2015,04,29,03,58,7.50
2015,04,29,03,59,7.50
2015,04,29,04,00,7.50
2015,04,29,04,01,7.50
2015,04,29,04,02,7.40
2015,04,29,04,03,7.40
2015,04,29,04,04,7.40
2015,04,29,04,05,7.40
2015,04,29,04,06,7.40
2015,04,29,04,07,7.40
2015,04,29,04,08,7.40
2015,04,29,04,09,7.40
2015,04,29,04,10,7.40
2015,04,29,04,11,7.40
2015,04,29,04,12,7.40
2015,04,29,04,13,7.40
2015,04,29,04,14,7.40
2015,04,29,04,15,7.40
2015,04,29,04,16,7.40
2015,04,29,04,17,7.40
2015,04,29,04,18,7.40
2015,04,29,04,19,7.40
2015,04,29,04,20,7.40
2015,04,29,04,21,7.40
2015,04,29,04,22,7.40
2015,04,29,04,23,7.40
2015,04,29,04,24,7.50
2015,04,29,04,25,7.50
2015,04,29,04,26,7.50
2015,04,29,04,27,7.50
2015,04,29,04,28,7.50
2015,04,29,04,29,7.50
2015,04,29,04,30,7.50
2015,04,29,04,31,7.50
2015,04,29,04,32,7.50
2015,04,29,04,33,7.60
2015,04,29,04,34,7.60
2015,04,29,04,35,7.60
2015,04,29,04,36,7.60
2015,04,29,04,37,7.60
2015,04,29,04,38,7.60
2015,04,29,04,39,7.60
2015,04,29,04,40,7.60
2015,04,29,04,41,7.60
2015,04,29,04,42,7.60
2015,04,29,04,43,7.60
2015,04,29,04,44,7.60
2015,04,29,04,45,7.60
2015,04,29,04,46,7.60
2015,04,29,04,47,7.60
2015,04,29,04,48,7.60
2015,04,29,04,49,7.60
2015,04,29,04,50,7.60
2015,04,29,04,51,7.60
2015,04,29,04,52,7.60
2015,04,29,04,53,7.60
2015,04,29,04,54,7.60
2015,04,29,04,55,7.60
2015,04,29,04,56,7.60
2015,04,29,04,57,7.60
2015,04,29,04,58,7.60
2015,04,29,04,59,7.60
2015,04,29,05,00,7.60
2015,04,29,05,01,7.60
2015,04,29,05,02,7.60
2015,04,29,05,03,7.60
2015,04,29,05,04,7.60
2015,04,29,05,05,7.60
2015,04,29,05,06,7.60
2015,04,29,05,07,7.60
2015,04,29,05,08,7.60
2015,04,29,05,09,7.60
2015,04,29,05,10,7.60
2015,04,29,05,11,7.60
2015,04,29,05,12,7.60
2015,04,29,05,13,7.60
2015,04,29,05,14,7.50
2015,04,29,05,15,7.50
2015,04,29,05,16,7.50
2015,04,29,05,17,7.50
2015,04,29,05,18,7.50
2015,04,29,05,19,7.50
2015,04,29,05,20,7.50
2015,04,29,05,21,7.50
2015,04,29,05,22,7.50
2015,04,29,05,23,7.50
2015,04,29,05,24,7.50
2015,04,29,05,25,7.50
2015,04,29,05,26,7.40
2015,04,29,05,27,7.40
2015,04,29,05,28,7.40
2015,04,29,05,29,7.40
2015,04,29,05,30,7.40
2015,04,29,05,31,7.40
2015,04,29,05,32,7.40
2015,04,29,05,33,7.40
2015,04,29,05,34,7.40
2015,04,29,05,35,7.40
2015,04,29,05,36,7.40
2015,04,29,05,37,7.50
2015,04,29,05,38,7.50
2015,04,29,05,39,7.50
2015,04,29,05,40,7.40
2015,04,29,05,41,7.50
2015,04,29,05,42,7.40
2015,04,29,05,43,7.40
2015,04,29,05,44,7.40
2015,04,29,05,45,7.40
2015,04,29,05,46,7.40
2015,04,29,05,47,7.40
2015,04,29,05,48,7.40
2015,04,29,05,49,7.40
2015,04,29,05,50,7.40
2015,04,29,05,51,7.40
2015,04,29,05,52,7.40
2015,04,29,05,53,7.40
2015,04,29,05,54,7.40
2015,04,29,05,55,7.40
2015,04,29,05,56,7.40
2015,04,29,05,57,7.40
2015,04,29,05,58,7.40
2015,04,29,05,59,7.40
2015,04,29,06,00,7.40
2015,04,29,06,01,7.40
2015,04,29,06,02,7.40
2015,04,29,06,03,7.40
2015,04,29,06,04,7.40
2015,04,29,06,05,7.30
2015,04,29,06,06,7.30
2015,04,29,06,07,7.30
2015,04,29,06,08,7.30
2015,04,29,06,09,7.30
2015,04,29,06,10,7.30
2015,04,29,06,11,7.30
2015,04,29,06,12,7.40
2015,04,29,06,13,7.40
2015,04,29,06,14,7.40
2015,04,29,06,15,7.40
2015,04,29,06,16,7.40
2015,04,29,06,17,7.40
2015,04,29,06,18,7.50
2015,04,29,06,19,7.50
2015,04,29,06,20,7.50
2015,04,29,06,21,7.60
2015,04,29,06,22,7.60
2015,04,29,06,23,7.60
2015,04,29,06,24,7.60
2015,04,29,06,25,7.60
2015,04,29,06,26,7.60
2015,04,29,06,27,7.60
2015,04,29,06,28,7.60
2015,04,29,06,29,7.60
2015,04,29,06,30,7.60
2015,04,29,06,31,7.60
2015,04,29,06,32,7.60
2015,04,29,06,33,7.60
2015,04,29,06,34,7.60
2015,04,29,06,35,7.60
2015,04,29,06,36,7.60
2015,04,29,06,37,7.60
2015,04,29,06,38,7.60
2015,04,29,06,39,7.60
2015,04,29,06,40,7.60
2015,04,29,06,41,7.70
2015,04,29,06,42,7.70
2015,04,29,06,43,7.70
2015,04,29,06,44,7.70
2015,04,29,06,45,7.70
2015,04,29,06,46,7.70
2015,04,29,06,47,7.70
2015,04,29,06,48,7.70
2015,04,29,06,49,7.70
2015,04,29,06,50,7.70
2015,04,29,06,51,7.70
2015,04,29,06,52,7.70
2015,04,29,06,53,7.70
2015,04,29,06,54,7.70
2015,04,29,06,55,7.70
2015,04,29,06,56,7.70
2015,04,29,06,57,7.70
2015,04,29,06,58,7.70
2015,04,29,06,59,7.70
2015,04,29,07,00,7.70
2015,04,29,07,01,7.70
2015,04,29,07,02,7.70
2015,04,29,07,03,7.80
2015,04,29,07,04,7.80
2015,04,29,07,05,7.80
2015,04,29,07,06,7.80
2015,04,29,07,07,7.80
2015,04,29,07,08,7.80
2015,04,29,07,09,7.80
2015,04,29,07,10,7.80
2015,04,29,07,11,7.80
2015,04,29,07,12,7.80
2015,04,29,07,13,7.80
2015,04,29,07,14,7.80
2015,04,29,07,15,7.80
2015,04,29,07,16,7.80
2015,04,29,07,17,7.80
2015,04,29,07,18,7.80
2015,04,29,07,19,7.80
2015,04,29,07,20,7.80
2015,04,29,07,21,7.80
2015,04,29,07,22,7.80
2015,04,29,07,23,7.80
2015,04,29,07,24,7.80
2015,04,29,07,25,7.90
2015,04,29,07,26,7.90
2015,04,29,07,27,7.90
2015,04,29,07,28,7.90
2015,04,29,07,29,7.90
2015,04,29,07,30,7.90
2015,04,29,07,31,8.00
2015,04,29,07,32,8.10
2015,04,29,07,33,8.10
2015,04,29,07,34,8.20
2015,04,29,07,35,8.20
2015,04,29,07,36,8.30
2015,04,29,07,37,8.30
2015,04,29,07,38,8.40
2015,04,29,07,39,8.50
2015,04,29,07,40,8.60
2015,04,29,07,41,8.60
2015,04,29,07,42,8.70
2015,04,29,07,43,8.70
2015,04,29,07,44,8.70
2015,04,29,07,45,8.80
2015,04,29,07,46,8.90
2015,04,29,07,47,9.00
2015,04,29,07,48,9.10
2015,04,29,07,49,9.20
2015,04,29,07,50,9.20
2015,04,29,07,51,9.30
2015,04,29,07,52,9.30
2015,04,29,07,53,9.40
2015,04,29,07,54,9.40
2015,04,29,07,55,9.50
2015,04,29,07,56,9.60
2015,04,29,07,57,9.60
2015,04,29,07,58,9.70
2015,04,29,07,59,9.80
2015,04,29,08,00,9.80
2015,04,29,08,01,9.90
2015,04,29,08,02,10.00
2015,04,29,08,03,10.10
2015,04,29,08,04,10.10
2015,04,29,08,05,10.10
2015,04,29,08,06,10.20
2015,04,29,08,07,10.30
2015,04,29,08,08,10.30
2015,04,29,08,09,10.40
2015,04,29,08,10,10.50
2015,04,29,08,11,10.50
2015,04,29,08,12,10.60
2015,04,29,08,13,10.60
2015,04,29,08,14,10.60
2015,04,29,08,15,10.70
2015,04,29,08,16,10.70
2015,04,29,08,17,10.80
2015,04,29,08,18,10.80
2015,04,29,08,19,10.90
2015,04,29,08,20,10.90
2015,04,29,08,21,11.00
2015,04,29,08,22,11.10
2015,04,29,08,23,11.10
2015,04,29,08,24,11.20
2015,04,29,08,25,11.20
2015,04,29,08,26,11.30
2015,04,29,08,27,11.30
2015,04,29,08,28,11.40
2015,04,29,08,29,11.40
2015,04,29,08,30,11.50
2015,04,29,08,31,11.50
2015,04,29,08,32,11.50
2015,04,29,08,33,11.60
2015,04,29,08,34,11.60
2015,04,29,08,35,11.60
2015,04,29,08,36,11.70
2015,04,29,08,37,11.70
2015,04,29,08,38,11.70
2015,04,29,08,39,11.70
2015,04,29,08,40,11.70
2015,04,29,08,41,11.80
2015,04,29,08,42,11.80
2015,04,29,08,43,11.80
2015,04,29,08,44,11.90
2015,04,29,08,45,11.90
2015,04,29,08,46,11.90
2015,04,29,08,47,11.90
2015,04,29,08,48,12.00
2015,04,29,08,49,12.00
2015,04,29,08,50,12.00
2015,04,29,08,51,12.10
2015,04,29,08,52,12.10
2015,04,29,08,53,12.10
2015,04,29,08,54,12.10
2015,04,29,08,55,12.10
2015,04,29,08,56,12.20
2015,04,29,08,57,12.20
2015,04,29,08,58,12.20
2015,04,29,08,59,12.20
2015,04,29,09,00,12.20
2015,04,29,09,01,12.20
2015,04,29,09,02,12.20
2015,04,29,09,03,12.20
2015,04,29,09,04,12.20
2015,04,29,09,05,12.20
2015,04,29,09,06,12.20
2015,04,29,09,07,12.10
2015,04,29,09,08,12.20
2015,04,29,09,09,12.20
2015,04,29,09,10,12.20
2015,04,29,09,11,12.20
2015,04,29,09,12,12.20
2015,04,29,09,13,12.30
2015,04,29,09,14,12.30
2015,04,29,09,15,12.30
2015,04,29,09,16,12.30
2015,04,29,09,17,12.40
2015,04,29,09,18,12.40
2015,04,29,09,19,12.40
2015,04,29,09,20,12.40
2015,04,29,09,21,12.40
2015,04,29,09,22,12.40
2015,04,29,09,23,12.40
2015,04,29,09,24,12.40
2015,04,29,09,25,12.40
2015,04,29,09,26,12.40
2015,04,29,09,27,12.50
2015,04,29,09,28,12.50
2015,04,29,09,29,12.50
2015,04,29,09,30,12.60
2015,04,29,09,31,12.60
2015,04,29,09,32,12.60
2015,04,29,09,33,12.70
2015,04,29,09,34,12.70
2015,04,29,09,35,12.80
2015,04,29,09,36,12.80
2015,04,29,09,37,12.90
2015,04,29,09,38,12.90
2015,04,29,09,39,12.90
2015,04,29,09,40,12.90
2015,04,29,09,41,12.90
2015,04,29,09,42,12.80
2015,04,29,09,43,12.80
2015,04,29,09,44,12.80
2015,04,29,09,45,12.80
2015,04,29,09,46,12.80
2015,04,29,09,47,12.80
2015,04,29,09,48,12.80
2015,04,29,09,49,12.90
2015,04,29,09,50,12.90
2015,04,29,09,51,12.90
2015,04,29,09,52,13.00
2015,04,29,09,53,13.10
2015,04,29,09,54,13.10
2015,04,29,09,55,13.20
2015,04,29,09,56,13.20
2015,04,29,09,57,13.20
2015,04,29,09,58,13.30
2015,04,29,09,59,13.30
2015,04,29,10,00,13.30
2015,04,29,10,01,13.30
2015,04,29,10,02,13.20
2015,04,29,10,03,13.20
2015,04,29,10,04,13.20
2015,04,29,10,05,13.10
2015,04,29,10,06,13.10
2015,04,29,10,07,13.10
2015,04,29,10,08,13.00
2015,04,29,10,09,13.00
2015,04,29,10,10,13.00
2015,04,29,10,11,13.00
2015,04,29,10,12,13.00
2015,04,29,10,13,13.00
2015,04,29,10,14,13.00
2015,04,29,10,15,13.00
2015,04,29,10,16,13.10
2015,04,29,10,17,13.10
2015,04,29,10,18,13.10
2015,04,29,10,19,13.10
2015,04,29,10,20,13.10
2015,04,29,10,21,13.10
2015,04,29,10,22,13.10
2015,04,29,10,23,13.10
2015,04,29,10,24,13.10
2015,04,29,10,25,13.10
2015,04,29,10,26,13.10
2015,04,29,10,27,13.10
2015,04,29,10,28,13.10
2015,04,29,10,29,13.20
2015,04,29,10,30,13.20
2015,04,29,10,31,13.20
2015,04,29,10,32,13.20
2015,04,29,10,33,13.20
2015,04,29,10,34,13.20
2015,04,29,10,35,13.20
2015,04,29,10,36,13.20
2015,04,29,10,37,13.20
2015,04,29,10,38,13.20
2015,04,29,10,39,13.10
2015,04,29,10,40,13.10
2015,04,29,10,41,13.20
2015,04,29,10,42,13.20
2015,04,29,10,43,13.20
2015,04,29,10,44,13.10
2015,04,29,10,45,13.10
2015,04,29,10,46,13.10
2015,04,29,10,47,13.20
2015,04,29,10,48,13.20
2015,04,29,10,49,13.30
2015,04,29,10,50,13.40
2015,04,29,10,51,13.50
2015,04,29,10,52,13.60
2015,04,29,10,53,13.70
2015,04,29,10,54,13.80
2015,04,29,10,55,13.80
2015,04,29,10,56,13.80
2015,04,29,10,57,13.80
2015,04,29,10,58,13.80
2015,04,29,10,59,13.80
2015,04,29,11,00,13.80
2015,04,29,11,01,13.70
2015,04,29,11,02,13.70
2015,04,29,11,03,13.60
2015,04,29,11,04,13.60
2015,04,29,11,05,13.60
2015,04,29,11,06,13.60
2015,04,29,11,07,13.50
2015,04,29,11,08,13.50
2015,04,29,11,09,13.50
2015,04,29,11,10,13.40
2015,04,29,11,11,13.40
2015,04,29,11,12,13.30
2015,04,29,11,13,13.30
2015,04,29,11,14,13.30
2015,04,29,11,15,13.30
2015,04,29,11,16,13.30
2015,04,29,11,17,13.30
2015,04,29,11,18,13.40
2015,04,29,11,19,13.40
2015,04,29,11,20,13.40
2015,04,29,11,21,13.40
2015,04,29,11,22,13.40
2015,04,29,11,23,13.40
2015,04,29,11,24,13.40
2015,04,29,11,25,13.30
2015,04,29,11,26,13.30
2015,04,29,11,27,13.30
2015,04,29,11,28,13.30
2015,04,29,11,29,13.30
2015,04,29,11,30,13.30
2015,04,29,11,31,13.30
2015,04,29,11,32,13.30
2015,04,29,11,33,13.30
2015,04,29,11,34,13.30
2015,04,29,11,35,13.30
2015,04,29,11,36,13.30
2015,04,29,11,37,13.30
2015,04,29,11,38,13.30
2015,04,29,11,39,13.30
2015,04,29,11,40,13.30
2015,04,29,11,41,13.20
2015,04,29,11,42,13.20
2015,04,29,11,43,13.30
2015,04,29,11,44,13.30
2015,04,29,11,45,13.30
2015,04,29,11,46,13.30
2015,04,29,11,47,13.40
2015,04,29,11,48,13.40
2015,04,29,11,49,13.40
2015,04,29,11,50,13.40
2015,04,29,11,51,13.40
2015,04,29,11,52,13.40
2015,04,29,11,53,13.40
2015,04,29,11,54,13.40
2015,04,29,11,55,13.40
2015,04,29,11,56,13.40
2015,04,29,11,57,13.40
2015,04,29,11,58,13.40
2015,04,29,11,59,13.50
2015,04,29,12,00,13.50
2015,04,29,12,01,13.50
2015,04,29,12,02,13.60
2015,04,29,12,03,13.60
2015,04,29,12,04,13.60
2015,04,29,12,05,13.60
2015,04,29,12,06,13.60
2015,04,29,12,07,13.60
2015,04,29,12,08,13.60
2015,04,29,12,09,13.60
2015,04,29,12,10,13.60
2015,04,29,12,11,13.60
2015,04,29,12,12,13.60
2015,04,29,12,13,13.60
2015,04,29,12,14,13.70
2015,04,29,12,15,13.70
2015,04,29,12,16,13.70
2015,04,29,12,17,13.70
2015,04,29,12,18,13.80
2015,04,29,12,19,13.80
2015,04,29,12,20,13.80
2015,04,29,12,21,13.80
2015,04,29,12,22,13.80
2015,04,29,12,23,13.80
2015,04,29,12,24,13.90
2015,04,29,12,25,13.90
2015,04,29,12,26,13.90
2015,04,29,12,27,13.90
2015,04,29,12,28,13.90
2015,04,29,12,29,14.00
2015,04,29,12,30,14.10
2015,04,29,12,31,14.10
2015,04,29,12,32,14.20
2015,04,29,12,33,14.20
2015,04,29,12,34,14.20
2015,04,29,12,35,14.20
2015,04,29,12,36,14.20
2015,04,29,12,37,14.30
2015,04,29,12,38,14.30
2015,04,29,12,39,14.30
2015,04,29,12,40,14.30
2015,04,29,12,41,14.30
2015,04,29,12,42,14.30
2015,04,29,12,43,14.30
2015,04,29,12,44,14.30
2015,04,29,12,45,14.20
2015,04,29,12,46,14.20
2015,04,29,12,47,14.20
2015,04,29,12,48,14.20
2015,04,29,12,49,14.20
2015,04,29,12,50,14.20
2015,04,29,12,51,14.20
2015,04,29,12,52,14.20
2015,04,29,12,53,14.30
2015,04,29,12,54,14.30
2015,04,29,12,55,14.30
2015,04,29,12,56,14.30
2015,04,29,12,57,14.30
2015,04,29,12,58,14.30
2015,04,29,12,59,14.30
2015,04,29,13,00,14.30
2015,04,29,13,01,14.30
2015,04,29,13,02,14.30
2015,04,29,13,03,14.40
2015,04,29,13,04,14.50
2015,04,29,13,05,14.60
2015,04,29,13,06,14.60
2015,04,29,13,07,14.70
2015,04,29,13,08,14.70
2015,04,29,13,09,14.80
2015,04,29,13,10,14.90
2015,04,29,13,11,14.90
2015,04,29,13,12,14.90
2015,04,29,13,13,15.00
2015,04,29,13,14,14.90
2015,04,29,13,15,14.90
2015,04,29,13,16,14.90
2015,04,29,13,17,14.90
2015,04,29,13,18,14.90
2015,04,29,13,19,14.90
2015,04,29,13,20,14.90
2015,04,29,13,21,14.80
2015,04,29,13,22,14.90
2015,04,29,13,23,14.90
2015,04,29,13,24,14.90
2015,04,29,13,25,14.80
2015,04,29,13,26,14.80
2015,04,29,13,27,14.80
2015,04,29,13,28,14.80
2015,04,29,13,29,14.80
2015,04,29,13,30,14.90
2015,04,29,13,31,14.90
2015,04,29,13,32,15.00
2015,04,29,13,33,15.00
2015,04,29,13,34,15.10
2015,04,29,13,35,15.20
2015,04,29,13,36,15.20
2015,04,29,13,37,15.30
2015,04,29,13,38,15.30
2015,04,29,13,39,15.30
2015,04,29,13,40,15.30
2015,04,29,13,41,15.20
2015,04,29,13,42,15.20
2015,04,29,13,43,15.10
2015,04,29,13,44,15.10
2015,04,29,13,45,15.10
2015,04,29,13,46,15.10
2015,04,29,13,47,15.10
2015,04,29,13,48,15.10
2015,04,29,13,49,15.10
2015,04,29,13,50,15.10
2015,04,29,13,51,15.10
2015,04,29,13,52,15.10
2015,04,29,13,53,15.10
2015,04,29,13,54,15.20
2015,04,29,13,55,15.10
2015,04,29,13,56,15.10
2015,04,29,13,57,15.10
2015,04,29,13,58,15.10
2015,04,29,13,59,15.00
2015,04,29,14,00,15.00
2015,04,29,14,01,15.00
2015,04,29,14,02,15.00
2015,04,29,14,03,15.00
2015,04,29,14,04,15.00
2015,04,29,14,05,15.00
2015,04,29,14,06,15.00
2015,04,29,14,07,15.10
2015,04,29,14,08,15.10
2015,04,29,14,09,15.10
2015,04,29,14,10,15.10
2015,04,29,14,11,15.10
2015,04,29,14,12,15.10
2015,04,29,14,13,15.10
2015,04,29,14,14,15.10
2015,04,29,14,15,15.10
2015,04,29,14,16,15.10
2015,04,29,14,17,15.20
2015,04,29,14,18,15.20
2015,04,29,14,19,15.30
2015,04,29,14,20,15.30
2015,04,29,14,21,15.30
2015,04,29,14,22,15.40
2015,04,29,14,23,15.40
2015,04,29,14,24,15.50
2015,04,29,14,25,15.50
2015,04,29,14,26,15.40
2015,04,29,14,27,15.40
2015,04,29,14,28,15.40
2015,04,29,14,29,15.30
2015,04,29,14,30,15.30
2015,04,29,14,31,15.30
2015,04,29,14,32,15.30
2015,04,29,14,33,15.30
2015,04,29,14,34,15.20
2015,04,29,14,35,15.30
2015,04,29,14,36,15.30
2015,04,29,14,37,15.30
2015,04,29,14,38,15.40
2015,04,29,14,39,15.40
2015,04,29,14,40,15.40
2015,04,29,14,41,15.40
2015,04,29,14,42,15.40
2015,04,29,14,43,15.40
2015,04,29,14,44,15.40
2015,04,29,14,45,15.40
2015,04,29,14,46,15.50
2015,04,29,14,47,15.50
2015,04,29,14,48,15.60
2015,04,29,14,49,15.70
2015,04,29,14,50,15.70
2015,04,29,14,51,15.70
2015,04,29,14,52,15.70
2015,04,29,14,53,15.70
2015,04,29,14,54,15.70
2015,04,29,14,55,15.70
2015,04,29,14,56,15.70
2015,04,29,14,57,15.70
2015,04,29,14,58,15.80
2015,04,29,14,59,15.80
2015,04,29,15,00,15.90
2015,04,29,15,01,15.90
2015,04,29,15,02,16.00
2015,04,29,15,03,16.00
2015,04,29,15,04,16.10
2015,04,29,15,05,16.20
2015,04,29,15,06,16.20
2015,04,29,15,07,16.30
2015,04,29,15,08,16.30
2015,04,29,15,09,16.30
2015,04,29,15,10,16.30
2015,04,29,15,11,16.40
2015,04,29,15,12,16.40
2015,04,29,15,13,16.50
2015,04,29,15,14,16.50
2015,04,29,15,15,16.60
2015,04,29,15,16,16.60
2015,04,29,15,17,16.60
2015,04,29,15,18,16.60
2015,04,29,15,19,16.60
2015,04,29,15,20,16.60
2015,04,29,15,21,16.60
2015,04,29,15,22,16.70
2015,04,29,15,23,16.70
2015,04,29,15,24,16.60
2015,04,29,15,25,16.60
2015,04,29,15,26,16.50
2015,04,29,15,27,16.50
2015,04,29,15,28,16.40
2015,04,29,15,29,16.40
2015,04,29,15,30,16.40
2015,04,29,15,31,16.30
2015,04,29,15,32,16.30
2015,04,29,15,33,16.10
2015,04,29,15,34,16.00
2015,04,29,15,35,15.90
2015,04,29,15,36,15.80
2015,04,29,15,37,15.80
2015,04,29,15,38,15.70
2015,04,29,15,39,15.70
2015,04,29,15,40,15.60
2015,04,29,15,41,15.50
2015,04,29,15,42,15.50
2015,04,29,15,43,15.40
2015,04,29,15,44,15.40
2015,04,29,15,45,15.30
2015,04,29,15,46,15.30
2015,04,29,15,47,15.30
2015,04,29,15,48,15.30
2015,04,29,15,49,15.30
2015,04,29,15,50,15.30
2015,04,29,15,51,15.30
2015,04,29,15,52,15.30
2015,04,29,15,53,15.30
2015,04,29,15,54,15.30
2015,04,29,15,55,15.30
2015,04,29,15,56,15.20
2015,04,29,15,57,15.20
2015,04,29,15,58,15.20
2015,04,29,15,59,15.20
2015,04,29,16,00,15.20
2015,04,29,16,01,15.20
2015,04,29,16,02,15.20
2015,04,29,16,03,15.20
2015,04,29,16,04,15.20
2015,04,29,16,05,15.20
2015,04,29,16,06,15.20
2015,04,29,16,07,15.20
2015,04,29,16,08,15.20
2015,04,29,16,09,15.20
2015,04,29,16,10,15.10
2015,04,29,16,11,15.10
2015,04,29,16,12,15.00
2015,04,29,16,13,15.00
2015,04,29,16,14,15.00
2015,04,29,16,15,14.90
2015,04,29,16,16,14.90
2015,04,29,16,17,14.90
2015,04,29,16,18,14.90
2015,04,29,16,19,14.90
2015,04,29,16,20,14.90
2015,04,29,16,21,14.80
2015,04,29,16,22,14.80
2015,04,29,16,23,14.80
2015,04,29,16,24,14.80
2015,04,29,16,25,14.80
2015,04,29,16,26,14.70
2015,04,29,16,27,14.70
2015,04,29,16,28,14.70
2015,04,29,16,29,14.70
2015,04,29,16,30,14.70
2015,04,29,16,31,14.70
2015,04,29,16,32,14.80
2015,04,29,16,33,14.80
2015,04,29,16,34,14.90
2015,04,29,16,35,14.90
2015,04,29,16,36,14.90
2015,04,29,16,37,15.00
2015,04,29,16,38,15.00
2015,04,29,16,39,15.10
2015,04,29,16,40,15.10
2015,04,29,16,41,15.10
2015,04,29,16,42,15.20
2015,04,29,16,43,15.20
2015,04,29,16,44,15.20
2015,04,29,16,45,15.20
2015,04,29,16,46,15.20
2015,04,29,16,47,15.20
2015,04,29,16,48,15.10
2015,04,29,16,49,15.10
2015,04,29,16,50,15.10
2015,04,29,16,51,15.10
2015,04,29,16,52,15.10
2015,04,29,16,53,15.00
2015,04,29,16,54,15.00
2015,04,29,16,55,14.90
2015,04,29,16,56,14.90
2015,04,29,16,57,14.90
2015,04,29,16,58,14.90
2015,04,29,16,59,14.90
2015,04,29,17,00,14.90
2015,04,29,17,01,14.90
2015,04,29,17,02,14.80
2015,04,29,17,03,14.80
2015,04,29,17,04,14.80
2015,04,29,17,05,14.80
2015,04,29,17,06,14.80
2015,04,29,17,07,14.80
2015,04,29,17,08,14.80
2015,04,29,17,09,14.80
2015,04,29,17,10,14.80
2015,04,29,17,11,14.80
2015,04,29,17,12,14.80
2015,04,29,17,13,14.80
2015,04,29,17,14,14.70
2015,04,29,17,15,14.70
2015,04,29,17,16,14.70
2015,04,29,17,17,14.70
2015,04,29,17,18,14.80
2015,04,29,17,19,14.80
2015,04,29,17,20,14.80
2015,04,29,17,21,14.80
2015,04,29,17,22,14.80
2015,04,29,17,23,14.90
2015,04,29,17,24,14.90
2015,04,29,17,25,14.90
2015,04,29,17,26,14.90
2015,04,29,17,27,14.90
2015,04,29,17,28,14.90
2015,04,29,17,29,14.80
2015,04,29,17,30,14.80
2015,04,29,17,31,14.80
2015,04,29,17,32,14.80
2015,04,29,17,33,14.70
2015,04,29,17,34,14.70
2015,04,29,17,35,14.70
2015,04,29,17,36,14.60
2015,04,29,17,37,14.60
2015,04,29,17,38,14.50
2015,04,29,17,39,14.50